Location: Podia
(1.5569°N, 32.3469°E)
Time: 14:19:49
(UTC+00:00)

DELTA 2 R/B (1) - Pass Details

Date: 01 June 2020
Orbit: 790 x 803 km, 39.6° (Epoch: 05 July)

Event Time Altitude Azimuth Distance (km) Brightness Sun altitude
Rises 16:35:11 0° 327° (NNW) 3,269 7.8 -10.2°
Reaches altitude 10° 16:37:50 10° 335° (NNW) 2,343 6.8 -10.8°
Maximum altitude 16:42:53 36° 41° (NE) 1,229 4.4 -11.9°
Enters shadow 16:46:37 17° 100° (E) 1,926 5.0 -12.8°
